Location: Central Coast
(33.3208°S, 151.2336°E)
Time: 00:44:36
(UTC+11:00)

Vanguard 1 Rocket - Visible Passes

Search period start: 22 October 2017 00:00
Search period end: 01 November 2017 00:00
Orbit: 655 x 4222 km, 34.3° (Epoch: 20 October)

Date Brightness Start Highest point End Pass type
(mag) Time Alt. Az. Time Alt. Az. Time Alt. Az.
22 Oct 10.2 00:18:40 10° WSW 00:44:32 75° NNW 00:46:04 73° N visible
22 Oct 10.6 02:53:02 10° WSW 03:24:24 24° N 03:29:55 10° NNE visible
22 Oct 10.4 20:35:26 10° W 20:54:03 89° S 21:20:37 11° E visible
22 Oct 10.4 23:04:36 10° W 23:28:56 85° NNW 23:37:48 56° ENE visible
23 Oct 10.6 01:36:43 10° WSW 02:18:44 14° NNE 02:19:57 10° NNE visible
23 Oct 10.9 04:36:10 12° NNW 04:36:10 12° NNW 04:38:09 10° NNW visible
23 Oct 10.3 19:23:39 10° WNW 19:39:06 85° NNE 20:05:15 10° E visible
23 Oct 10.4 21:51:18 10° W 22:12:55 89° S 22:29:37 33° E visible
24 Oct 10.3 00:21:44 10° WSW 00:46:48 68° NNW 00:46:48 68° NNW visible
24 Oct 11.0 02:56:48 10° W 03:30:17 13° N 03:31:31 10° N visible
24 Oct 10.4 20:38:46 10° W 20:57:09 87° S 21:21:30 15° E visible
24 Oct 10.4 23:07:45 10° WSW 23:31:42 80° NNW 23:38:42 61° NE visible
25 Oct 10.8 01:39:57 10° WSW 02:24:13 - NNE 01:55:54 38° WNW visible
25 Oct11.104:41:37NNW04:41:37NNW04:13:06Wvisible
25 Oct 10.3 19:26:56 10° WNW 19:42:08 89° NNE 20:08:14 10° E visible
25 Oct 10.4 21:54:35 10° W 22:15:54 88° NNW 22:30:39 39° ENE visible
26 Oct 10.4 00:24:50 10° WSW 00:47:52 60° NW 00:47:52 60° NW visible
26 Oct 11.2 03:01:10 10° W 03:35:24 - N 03:05:04 15° W visible
26 Oct 10.4 20:42:07 10° W 21:00:15 88° S 21:22:40 19° E visible
26 Oct 10.4 23:10:54 10° WSW 23:34:21 74° NNW 23:39:52 63° NNE visible
27 Oct 11.0 01:43:26 10° WSW 01:57:05 32° WNW 01:57:05 32° WNW visible
27 Oct 10.2 19:30:18 10° W 19:45:16 88° S 20:11:14 10° E visible
27 Oct 10.4 21:57:50 10° WSW 22:18:48 84° NNW 22:31:56 43° ENE visible
28 Oct 10.6 00:28:03 10° WSW 00:49:09 52° NW 00:49:09 52° NW visible
28 Oct 10.3 20:45:28 10° W 21:03:20 89° S 21:24:02 23° E visible
28 Oct 10.4 23:14:05 10° WSW 23:36:53 66° NNW 23:41:15 61° N visible
29 Oct 11.2 01:47:19 10° W 01:58:28 25° WNW 01:58:28 25° WNW visible
29 Oct 10.2 19:33:42 10° W 19:48:27 87° S 20:14:16 10° E visible
29 Oct 10.4 22:01:05 10° WSW 22:21:37 78° NNW 22:33:25 46° NE visible
30 Oct 10.8 00:31:26 10° WSW 00:50:38 44° NW 00:50:38 44° NW visible
30 Oct 10.3 20:48:48 10° W 21:06:22 87° NNW 21:25:37 26° ENE visible
30 Oct 10.5 23:17:19 10° WSW 23:39:20 59° NNW 23:42:50 56° N visible
31 Oct 11.4 01:51:50 10° W 02:00:04 20° WNW 02:00:04 20° WNW visible
31 Oct 10.2 19:37:06 10° W 19:51:37 88° S 20:17:15 10° E visible
31 Oct 10.4 22:04:20 10° WSW 22:24:19 72° NNW 22:35:06 47° NE visible
